loading
|

SL-8 DEB, 1591

Orbit data source: Space-Track

SL-8 DEB, 1591 is space debris in LEO originally from a launch on Sat, 18 Sep 1965 UTC launched from the Tyuratam Missile And Space Complex (TTMTR). Debris objects in space refer to the collection of defunct objects orbiting the Earth. Examples of debris include non-operational satellites, rocket bodies, and fragments generated from explosions, collisions, or faulty payload assembly.

Loading next visibility...
Loading greatness...
SL-8 DEB details
Identifier
1591, 1965-073H
Orbit
LEO
Last TLE update18 hours ago
Origin
Flag of CISRVSN (CIS)
ManufacturerUnknown
MissionSpacecraft
Bus & MotorUnknown bus, Unknown motor
MassUnknown
Launch date (UTC)
1965-09-18 (59 years ago)
Launch vehicleUnknown
Launch site
Tyuratam Missile And Space Complex (TTMTR)
Object type
Payload
Rocket body
Debris
Shape & HBRUnknown
Radar Cross SectionSmall (<0.1 m²)

Expand to show TLE details & history

TLE from 18 hours ago
0 SL-8 DEB
1 01591U 65073H   24284.20458455  .00000894  00000-0  68404-2 0  9995
2 01591  56.0620 347.3233 0151785 230.5089 162.0397 12.42773980672260
Epoch: 2024-10-10T04:54Z
Definitive object data (Epoch: 2024-10-10T04:54:36.105Z)
Latitude26.9845°
Longitude-85.68191°
Altitude1,610.192 km
Speed7.017 km/s
True Right ascension00h 29m 02s
True Declination26° 51' 38"
Sunlit
Object was in full shadow at TLE epoch
Predictive object data (real-time)
Latitude5.2351°
Longitude68.85004°
Altitude1,430.563 km
Speed7.176 km/s
Apparent Right ascension08h 48m 54s
Apparent Declination-18° 55' 12"
Sunlit
Object is in daylight
Predictive observer data (real-time)
Local Sidereal Time17:22:39
Azimuth279.851° WNW
Elevation-41.232°
Doppler factor1
Orbital elements
Apogee1,614.187 km
Perigee1,375.191 km
Semi-major axis7,872.826 km
Eccentricity0.0151785
Inclination56.062°
RAAN347.3233°
Arg. of periapsis230.5089°
True anomaly162.56651°
Mean anomaly162.0397°
Eccentric anomaly162.30405°
Mean motion3.10704 °/min
BSTAR0.0068404
Period115.87 mins
No data available

SL-8 DEB Visibility forecast

Observer location: 39.9160978°, -105.1181434

SL-8 DEB is not visible in the next 10 days
Span
Click to sort rows by Start time (UTC) header in descending order
Start Az.
Max El. time (UTC)
Max El. Az.
Max El.
End time (UTC)
End Az.